BEIDOU-3 M3 (C21)

Last updated on Wed Aug 26 2026 00:04:16 GMT+0000 (Coordinated Universal Time)

1 43208U 18018B 26236.99817690 -.00000004 00000+0 00000+0 0 9996 2 43208 56.7137 60.8858 0005890 350.0427 10.0075 1.86231543 58027
UTC large
Height (km)
Speed (km/s)
/
Latitude / Longitude
Inclination (degrees)
Orbital Period (minutes)
Azimuth
Elevation
Range (km)
Doppler Factor

Next 0 passes for location: London (51.5072 / 0.1276)

No passes found over London.
BEIDOU-3 M3 (C21)